| time (UTC) | temp F | wind direction | speed knots | gust knots | rain 1hr in | rain 24hr in | rain mn in | humidity % | barometer mb |
| 20260905223057 | 99 | 0 | 0.0 | 1.7 | 0.00 | 0.00 | 0.00 | 42 | 1010.7 |
| 20260905222549 | 98 | 89 | 0.0 | 3.5 | 0.00 | 0.00 | 0.00 | 43 | 1010.7 |
| 20260905222046 | 99 | 89 | 0.0 | 3.5 | 0.00 | 0.00 | 0.00 | 42 | 1010.7 |
| 20260905221556 | 99 | 0 | 0.0 | 2.6 | 0.00 | 0.00 | 0.00 | 43 | 1010.8 |
| 20260905221048 | 98 | 0 | 0.0 | 2.6 | 0.00 | 0.00 | 0.00 | 41 | 1010.9 |
| 20260905220546 | 98 | 91 | 0.0 | 2.6 | 0.00 | 0.00 | 0.00 | 41 | 1010.9 |
| 20260905220118 | 99 | 0 | 0.0 | 2.6 | 0.00 | 0.00 | 0.00 | 42 | 1011.1 |
| 20260905215546 | 99 | 68 | 0.0 | 1.7 | 0.00 | 0.00 | 0.00 | 41 | 1011.0 |
| 20260905215045 | 99 | 0 | 0.0 | 1.7 | 0.00 | 0.00 | 0.00 | 41 | 1011.0 |
| 20260905214558 | 99 | 0 | 0.0 | 2.6 | 0.00 | 0.00 | 0.00 | 42 | 1011.0 |
| 20260905214045 | 99 | 0 | 0.0 | 3.5 | 0.00 | 0.00 | 0.00 | 41 | 1011.1 |
| 20260905213545 | 99 | 68 | 0.9 | 3.5 | 0.00 | 0.00 | 0.00 | 41 | 1011.0 |
| 20260905213057 | 99 | 0 | 0.9 | 2.6 | 0.00 | 0.00 | 0.00 | 42 | 1011.0 |
| 20260905212545 | 99 | 65 | 0.0 | 2.6 | 0.00 | 0.00 | 0.00 | 41 | 1011.0 |
| 20260905212049 | 99 | 0 | 0.9 | 2.6 | 0.00 | 0.00 | 0.00 | 41 | 1011.1 |
| 20260905211554 | 99 | 0 | 0.0 | 3.5 | 0.00 | 0.00 | 0.00 | 41 | 1011.2 |
| 20260905211045 | 99 | 0 | 0.0 | 3.5 | 0.00 | 0.00 | 0.00 | 44 | 1011.3 |
| 20260905210545 | 99 | 65 | 0.0 | 2.6 | 0.00 | 0.00 | 0.00 | 43 | 1011.3 |
| 20260905210108 | 99 | 61 | 0.9 | 2.6 | 0.00 | 0.00 | 0.00 | 43 | 1011.3 |
| 20260905205551 | 99 | 61 | 0.0 | 2.6 | 0.00 | 0.00 | 0.00 | 44 | 1011.3 |
| 20260905205046 | 99 | 0 | 0.0 | 1.7 | 0.00 | 0.00 | 0.00 | 44 | 1011.6 |
| 20260905204557 | 98 | 62 | 0.9 | 2.6 | 0.00 | 0.00 | 0.00 | 44 | 1011.7 |
| 20260905204045 | 98 | 0 | 0.0 | 2.6 | 0.00 | 0.00 | 0.00 | 45 | 1011.7 |
| 20260905203549 | 98 | 62 | 0.0 | 3.5 | 0.00 | 0.00 | 0.00 | 45 | 1011.8 |
| 20260905203108 | 98 | 62 | 0.0 | 3.5 | 0.00 | 0.00 | 0.00 | 45 | 1011.9 |
| 20260905202545 | 98 | 60 | 0.0 | 2.6 | 0.00 | 0.00 | 0.00 | 45 | 1012.0 |
| 20260905202049 | 98 | 60 | 0.0 | 2.6 | 0.00 | 0.00 | 0.00 | 45 | 1012.2 |
| 20260905201554 | 98 | 0 | 0.0 | 1.7 | 0.00 | 0.00 | 0.00 | 44 | 1012.2 |
| 20260905201045 | 98 | 0 | 0.0 | 2.6 | 0.00 | 0.00 | 0.00 | 45 | 1012.3 |
| 20260905200546 | 98 | 60 | 0.0 | 3.5 | 0.00 | 0.00 | 0.00 | 44 | 1012.4 |
| 20260905200105 | 98 | 0 | 0.0 | 5.2 | 0.00 | 0.00 | 0.00 | 46 | 1012.5 |
| 20260905195548 | 98 | 0 | 0.9 | 5.2 | 0.00 | 0.00 | 0.00 | 46 | 1012.6 |
| 20260905195047 | 97 | 58 | 0.9 | 5.2 | 0.00 | 0.00 | 0.00 | 46 | 1012.7 |
| 20260905194557 | 97 | 68 | 0.0 | 3.5 | 0.00 | 0.00 | 0.00 | 48 | 1012.5 |
| 20260905194048 | 97 | 0 | 0.0 | 3.5 | 0.00 | 0.00 | 0.00 | 47 | 1012.6 |
| 20260905193551 | 97 | 64 | 0.0 | 3.5 | 0.00 | 0.00 | 0.00 | 47 | 1012.7 |
| 20260905193054 | 97 | 64 | 0.9 | 3.5 | 0.00 | 0.00 | 0.00 | 46 | 1012.9 |
| 20260905192551 | 97 | 0 | 0.0 | 2.6 | 0.00 | 0.00 | 0.00 | 48 | 1013.0 |
| 20260905192049 | 97 | 0 | 0.0 | 5.2 | 0.00 | 0.00 | 0.00 | 47 | 1013.0 |
| 20260905191609 | 97 | 0 | 0.9 | 5.2 | 0.00 | 0.00 | 0.00 | 47 | 1013.1 |
| 20260905191048 | 97 | 62 | 0.9 | 5.2 | 0.00 | 0.00 | 0.00 | 47 | 1013.2 |
| 20260905190547 | 96 | 0 | 0.0 | 3.5 | 0.00 | 0.00 | 0.00 | 48 | 1013.2 |
| 20260905185547 | 96 | 72 | 0.9 | 3.5 | 0.00 | 0.00 | 0.00 | 50 | 1013.5 |
| 20260905185047 | 96 | 0 | 0.0 | 2.6 | 0.00 | 0.00 | 0.00 | 48 | 1013.5 |
| 20260905184602 | 96 | 70 | 0.0 | 3.5 | 0.00 | 0.00 | 0.00 | 52 | 1013.7 |
| 20260905184047 | 96 | 0 | 0.0 | 3.5 | 0.00 | 0.00 | 0.00 | 50 | 1013.8 |
| 20260905183549 | 95 | 72 | 0.9 | 3.5 | 0.00 | 0.00 | 0.00 | 50 | 1013.8 |
| 20260905183057 | 94 | 61 | 0.0 | 3.5 | 0.00 | 0.00 | 0.00 | 56 | 1013.8 |
| 20260905182548 | 94 | 0 | 0.0 | 5.2 | 0.00 | 0.00 | 0.00 | 53 | 1014.0 |
| 20260905182047 | 94 | 61 | 0.9 | 5.2 | 0.00 | 0.00 | 0.00 | 54 | 1014.1 |
| 20260905181606 | 94 | 59 | 0.0 | 5.2 | 0.00 | 0.00 | 0.00 | 54 | 1014.2 |
| 20260905181048 | 94 | 0 | 0.9 | 5.2 | 0.00 | 0.00 | 0.00 | 55 | 1014.3 |
| 20260905180548 | 94 | 0 | 0.0 | 2.6 | 0.00 | 0.00 | 0.00 | 55 | 1014.3 |
| 20260905180059 | 94 | 0 | 0.0 | 5.2 | 0.00 | 0.00 | 0.00 | 56 | 1014.5 |
| 20260905175549 | 93 | 58 | 0.0 | 5.2 | 0.00 | 0.00 | 0.00 | 56 | 1014.6 |
| 20260905175048 | 93 | 67 | 0.9 | 5.2 | 0.00 | 0.00 | 0.00 | 57 | 1014.7 |
| 20260905174601 | 93 | 0 | 0.0 | 5.2 | 0.00 | 0.00 | 0.00 | 57 | 1014.7 |
| 20260905174047 | 93 | 62 | 0.9 | 3.5 | 0.00 | 0.00 | 0.00 | 57 | 1014.9 |
| 20260905173548 | 92 | 0 | 0.0 | 6.1 | 0.00 | 0.00 | 0.00 | 58 | 1015.0 |
| 20260905173055 | 92 | 66 | 0.0 | 6.1 | 0.00 | 0.00 | 0.00 | 63 | 1015.0 |
| 20260905172548 | 92 | 0 | 0.9 | 6.1 | 0.00 | 0.00 | 0.00 | 60 | 1015.1 |
| 20260905172048 | 92 | 0 | 0.9 | 5.2 | 0.00 | 0.00 | 0.00 | 62 | 1015.2 |
| 20260905171615 | 92 | 62 | 0.9 | 5.2 | 0.00 | 0.00 | 0.00 | 61 | 1015.3 |
| 20260905171048 | 91 | 56 | 0.0 | 3.5 | 0.00 | 0.00 | 0.00 | 63 | 1015.3 |
| 20260905170547 | 91 | 66 | 0.0 | 5.2 | 0.00 | 0.00 | 0.00 | 63 | 1015.4 |
| 20260905170106 | 91 | 55 | 1.7 | 5.2 | 0.00 | 0.00 | 0.00 | 63 | 1015.3 |
| 20260905165547 | 91 | 56 | 0.9 | 3.5 | 0.00 | 0.00 | 0.00 | 63 | 1015.4 |
| 20260905165045 | 90 | 61 | 0.0 | 2.6 | 0.00 | 0.00 | 0.00 | 66 | 1015.4 |
| 20260905164602 | 90 | 0 | 0.0 | 3.5 | 0.00 | 0.00 | 0.00 | 65 | 1015.5 |
| 20260905164045 | 89 | 0 | 0.9 | 5.2 | 0.00 | 0.00 | 0.00 | 67 | 1015.4 |
| 20260905163545 | 89 | 61 | 0.9 | 5.2 | 0.00 | 0.00 | 0.00 | 67 | 1015.5 |
| 20260905163102 | 88 | 0 | 0.9 | 3.5 | 0.00 | 0.00 | 0.00 | 68 | 1015.6 |
| 20260905162546 | 88 | 55 | 0.0 | 1.7 | 0.00 | 0.00 | 0.00 | 70 | 1015.5 |
| 20260905162046 | 87 | 55 | 0.0 | 6.1 | 0.00 | 0.00 | 0.00 | 70 | 1015.5 |
| 20260905161604 | 87 | 0 | 0.9 | 6.1 | 0.00 | 0.00 | 0.00 | 70 | 1015.5 |
| 20260905161046 | 87 | 62 | 0.0 | 5.2 | 0.00 | 0.00 | 0.00 | 71 | 1015.6 |
| 20260905160544 | 87 | 74 | 0.0 | 5.2 | 0.00 | 0.00 | 0.00 | 72 | 1015.6 |
| 20260905160108 | 86 | 0 | 0.0 | 6.1 | 0.00 | 0.00 | 0.00 | 72 | 1015.5 |
| 20260905155545 | 86 | 0 | 0.0 | 6.1 | 0.00 | 0.00 | 0.00 | 75 | 1015.4 |
| 20260905155045 | 86 | 59 | 2.6 | 6.1 | 0.00 | 0.00 | 0.00 | 74 | 1015.5 |
| 20260905154632 | 86 | 0 | 0.0 | 5.2 | 0.00 | 0.00 | 0.00 | 75 | 1015.5 |
| 20260905154046 | 86 | 68 | 1.7 | 5.2 | 0.00 | 0.00 | 0.00 | 75 | 1015.5 |
| 20260905153549 | 85 | 65 | 0.9 | 5.2 | 0.00 | 0.00 | 0.00 | 76 | 1015.4 |
| 20260905153055 | 85 | 0 | 0.0 | 3.5 | 0.00 | 0.00 | 0.00 | 77 | 1015.5 |
| 20260905152546 | 85 | 0 | 0.0 | 3.5 | 0.00 | 0.00 | 0.00 | 78 | 1015.5 |
| 20260905152045 | 84 | 0 | 0.9 | 5.2 | 0.00 | 0.00 | 0.00 | 79 | 1015.5 |
| 20260905151601 | 84 | 0 | 0.0 | 5.2 | 0.00 | 0.00 | 0.00 | 80 | 1015.6 |
| 20260905151044 | 84 | 59 | 0.0 | 3.5 | 0.00 | 0.00 | 0.00 | 82 | 1015.5 |
| 20260905150544 | 83 | 56 | 0.9 | 3.5 | 0.00 | 0.00 | 0.00 | 82 | 1015.7 |
| 20260905150106 | 83 | 0 | 0.0 | 2.6 | 0.00 | 0.00 | 0.00 | 83 | 1015.7 |
| 20260905145546 | 83 | 62 | 0.0 | 2.6 | 0.00 | 0.00 | 0.00 | 83 | 1015.5 |
| 20260905145045 | 83 | 62 | 0.0 | 1.7 | 0.00 | 0.00 | 0.00 | 84 | 1015.4 |
| 20260905144556 | 82 | 0 | 0.0 | 1.7 | 0.00 | 0.00 | 0.00 | 86 | 1015.4 |
| 20260905144045 | 82 | 0 | 0.0 | 2.6 | 0.00 | 0.00 | 0.00 | 87 | 1015.4 |
| 20260905143545 | 81 | 0 | 0.0 | 2.6 | 0.00 | 0.00 | 0.00 | 88 | 1015.4 |
| 20260905143104 | 81 | 62 | 0.0 | 1.7 | 0.00 | 0.00 | 0.00 | 89 | 1015.4 |
| 20260905142545 | 81 | 0 | 0.0 | 1.7 | 0.00 | 0.00 | 0.00 | 90 | 1015.4 |
| 20260905142045 | 80 | 0 | 0.0 | 1.7 | 0.00 | 0.00 | 0.00 | 90 | 1015.4 |
| 20260905141600 | 80 | 0 | 0.0 | 1.7 | 0.00 | 0.00 | 0.00 | 91 | 1015.4 |
| 20260905141045 | 80 | 0 | 0.0 | 1.7 | 0.00 | 0.00 | 0.00 | 91 | 1015.3 |
| 20260905140545 | 80 | 0 | 0.0 | 0.9 | 0.00 | 0.00 | 0.00 | 91 | 1015.3 |
| 20260905140057 | 80 | 0 | 0.0 | 0.9 | 0.00 | 0.00 | 0.00 | 91 | 1015.3 |
| 20260905135545 | 80 | 0 | 0.0 | 0.9 | 0.00 | 0.00 | 0.00 | 92 | 1015.3 |
| 20260905135046 | 79 | 0 | 0.0 | 1.7 | 0.00 | 0.00 | 0.00 | 92 | 1015.3 |
| 20260905134603 | 79 | 0 | 0.0 | 1.7 | 0.00 | 0.00 | 0.00 | 92 | 1015.1 |
| 20260905134047 | 79 | 63 | 0.0 | 1.7 | 0.00 | 0.00 | 0.00 | 92 | 1015.1 |
| 20260905133549 | 79 | 0 | 0.0 | 1.7 | 0.00 | 0.00 | 0.00 | 92 | 1015.1 |
| 20260905133102 | 79 | 0 | 0.0 | 2.6 | 0.00 | 0.00 | 0.00 | 93 | 1015.1 |
| 20260905132549 | 79 | 0 | 0.0 | 2.6 | 0.00 | 0.00 | 0.00 | 93 | 1015.1 |
| 20260905132048 | 78 | 0 | 0.0 | 0.0 | 0.00 | 0.00 | 0.00 | 93 | 1015.0 |
| 20260905131602 | 78 | 0 | 0.0 | 0.0 | 0.00 | 0.00 | 0.00 | 93 | 1015.0 |
| 20260905131048 | 78 | 0 | 0.0 | 0.0 | 0.00 | 0.00 | 0.00 | 92 | 1014.9 |
| 20260905130553 | 77 | 0 | 0.0 | 0.0 | 0.00 | 0.00 | 0.00 | 91 | 1014.9 |
| 20260905130059 | 77 | 0 | 0.0 | 0.0 | 0.00 | 0.00 | 0.00 | 91 | 1014.9 |
| 20260905125549 | 77 | 0 | 0.0 | 0.0 | 0.00 | 0.00 | 0.00 | 91 | 1014.7 |
| 20260905125047 | 77 | 0 | 0.0 | 0.0 | 0.00 | 0.00 | 0.00 | 91 | 1014.6 |
| 20260905124558 | 77 | 0 | 0.0 | 0.0 | 0.00 | 0.00 | 0.00 | 91 | 1014.5 |
| 20260905124049 | 77 | 0 | 0.0 | 0.0 | 0.00 | 0.00 | 0.00 | 91 | 1014.5 |
| 20260905123547 | 77 | 0 | 0.0 | 0.0 | 0.00 | 0.00 | 0.00 | 92 | 1014.5 |
| 20260905123105 | 77 | 0 | 0.0 | 0.0 | 0.00 | 0.00 | 0.00 | 92 | 1014.3 |
| 20260905122548 | 77 | 0 | 0.0 | 0.0 | 0.00 | 0.00 | 0.00 | 92 | 1014.4 |
| 20260905122047 | 77 | 0 | 0.0 | 0.0 | 0.00 | 0.00 | 0.00 | 91 | 1014.3 |
| 20260905121559 | 77 | 0 | 0.0 | 0.0 | 0.00 | 0.00 | 0.00 | 91 | 1014.5 |
| 20260905121048 | 77 | 0 | 0.0 | 0.0 | 0.00 | 0.00 | 0.00 | 91 | 1014.5 |
| 20260905120548 | 77 | 0 | 0.0 | 0.0 | 0.00 | 0.00 | 0.00 | 91 | 1014.3 |
| 20260905120057 | 77 | 0 | 0.0 | 0.0 | 0.00 | 0.00 | 0.00 | 91 | 1014.4 |
| 20260905115547 | 77 | 0 | 0.0 | 0.0 | 0.00 | 0.00 | 0.00 | 91 | 1014.2 |
| 20260905115047 | 76 | 0 | 0.0 | 0.0 | 0.00 | 0.00 | 0.00 | 91 | 1014.2 |
| 20260905114606 | 77 | 0 | 0.0 | 0.0 | 0.00 | 0.00 | 0.00 | 92 | 1014.2 |
| 20260905114047 | 76 | 0 | 0.0 | 0.0 | 0.00 | 0.00 | 0.00 | 92 | 1014.1 |
| 20260905113548 | 76 | 0 | 0.0 | 0.0 | 0.00 | 0.00 | 0.00 | 92 | 1014.2 |
| 20260905113101 | 76 | 0 | 0.0 | 0.0 | 0.00 | 0.00 | 0.00 | 91 | 1014.2 |
| 20260905112548 | 77 | 0 | 0.0 | 0.0 | 0.00 | 0.00 | 0.00 | 91 | 1014.2 |
| 20260905112046 | 77 | 0 | 0.0 | 0.0 | 0.00 | 0.00 | 0.00 | 91 | 1014.1 |
| 20260905111627 | 77 | 0 | 0.0 | 0.0 | 0.00 | 0.00 | 0.00 | 91 | 1014.0 |
| 20260905111048 | 77 | 0 | 0.0 | 0.0 | 0.00 | 0.00 | 0.00 | 91 | 1014.0 |
| 20260905110547 | 77 | 0 | 0.0 | 0.0 | 0.00 | 0.00 | 0.00 | 91 | 1013.9 |
| 20260905110106 | 77 | 0 | 0.0 | 0.0 | 0.00 | 0.00 | 0.00 | 91 | 1014.0 |
| 20260905105547 | 77 | 0 | 0.0 | 0.0 | 0.00 | 0.00 | 0.00 | 91 | 1014.0 |
| 20260905105048 | 77 | 0 | 0.0 | 0.0 | 0.00 | 0.00 | 0.00 | 91 | 1014.0 |
| 20260905104619 | 77 | 0 | 0.0 | 0.0 | 0.00 | 0.00 | 0.00 | 90 | 1013.9 |
| 20260905104047 | 77 | 0 | 0.0 | 0.0 | 0.00 | 0.00 | 0.00 | 90 | 1013.9 |
| 20260905103547 | 77 | 0 | 0.0 | 0.0 | 0.00 | 0.00 | 0.00 | 90 | 1013.9 |
| 20260905103052 | 77 | 0 | 0.0 | 0.0 | 0.00 | 0.00 | 0.00 | 90 | 1013.9 |
| 20260905102546 | 77 | 0 | 0.0 | 0.0 | 0.00 | 0.00 | 0.00 | 90 | 1013.9 |
| 20260905102047 | 78 | 0 | 0.0 | 0.0 | 0.00 | 0.00 | 0.00 | 90 | 1014.0 |
| 20260905101559 | 78 | 0 | 0.0 | 0.0 | 0.00 | 0.00 | 0.00 | 90 | 1013.9 |
| 20260905101046 | 78 | 0 | 0.0 | 0.0 | 0.00 | 0.00 | 0.00 | 90 | 1013.9 |
| 20260905100547 | 78 | 0 | 0.0 | 0.0 | 0.00 | 0.00 | 0.00 | 90 | 1013.7 |
| 20260905100059 | 78 | 0 | 0.0 | 0.0 | 0.00 | 0.00 | 0.00 | 90 | 1013.8 |
| 20260905095547 | 78 | 0 | 0.0 | 0.0 | 0.00 | 0.00 | 0.00 | 89 | 1013.7 |
| 20260905095047 | 78 | 0 | 0.0 | 0.0 | 0.00 | 0.00 | 0.00 | 89 | 1013.8 |
| 20260905094716 | 78 | 0 | 0.0 | 0.0 | 0.00 | 0.00 | 0.00 | 89 | 1013.8 |
| 20260905094047 | 78 | 0 | 0.0 | 0.0 | 0.00 | 0.00 | 0.00 | 89 | 1013.7 |
| 20260905093547 | 79 | 0 | 0.0 | 0.0 | 0.00 | 0.00 | 0.00 | 88 | 1013.7 |
| 20260905093126 | 79 | 0 | 0.0 | 0.0 | 0.00 | 0.00 | 0.00 | 88 | 1013.7 |
| 20260905092546 | 79 | 0 | 0.0 | 0.0 | 0.00 | 0.00 | 0.00 | 87 | 1013.7 |
| 20260905092046 | 79 | 0 | 0.0 | 0.0 | 0.00 | 0.00 | 0.00 | 88 | 1013.7 |
| 20260905091603 | 79 | 0 | 0.0 | 0.0 | 0.00 | 0.00 | 0.00 | 88 | 1013.7 |
| 20260905091046 | 79 | 0 | 0.0 | 0.0 | 0.00 | 0.00 | 0.00 | 88 | 1013.8 |
| 20260905090546 | 79 | 0 | 0.0 | 0.0 | 0.00 | 0.00 | 0.00 | 87 | 1013.9 |
| 20260905090056 | 79 | 0 | 0.0 | 0.0 | 0.00 | 0.00 | 0.00 | 87 | 1013.9 |
| 20260905085547 | 79 | 0 | 0.0 | 0.0 | 0.00 | 0.00 | 0.00 | 87 | 1013.9 |
| 20260905085047 | 80 | 0 | 0.0 | 0.0 | 0.00 | 0.00 | 0.00 | 86 | 1013.9 |
| 20260905084606 | 80 | 0 | 0.0 | 0.0 | 0.00 | 0.00 | 0.00 | 87 | 1013.9 |
| 20260905084050 | 80 | 0 | 0.0 | 1.7 | 0.00 | 0.00 | 0.00 | 87 | 1013.9 |
| 20260905083547 | 80 | 0 | 0.0 | 1.7 | 0.00 | 0.00 | 0.00 | 87 | 1013.9 |
| 20260905083102 | 80 | 63 | 0.0 | 0.0 | 0.00 | 0.00 | 0.00 | 86 | 1013.9 |
| 20260905082547 | 80 | 0 | 0.0 | 0.9 | 0.00 | 0.00 | 0.00 | 86 | 1013.9 |
| 20260905082047 | 80 | 0 | 0.0 | 0.9 | 0.00 | 0.00 | 0.00 | 86 | 1014.0 |
| 20260905081557 | 80 | 0 | 0.0 | 0.9 | 0.00 | 0.00 | 0.00 | 85 | 1014.0 |
| 20260905081046 | 80 | 0 | 0.0 | 0.9 | 0.00 | 0.00 | 0.00 | 86 | 1014.0 |
| 20260905080547 | 80 | 0 | 0.0 | 0.0 | 0.00 | 0.00 | 0.00 | 86 | 1014.1 |
| 20260905080108 | 80 | 0 | 0.0 | 0.0 | 0.00 | 0.00 | 0.00 | 85 | 1014.1 |
| 20260905075548 | 81 | 0 | 0.0 | 1.7 | 0.00 | 0.00 | 0.00 | 85 | 1014.0 |
| 20260905075047 | 81 | 0 | 0.0 | 1.7 | 0.00 | 0.00 | 0.00 | 85 | 1014.0 |
| 20260905074606 | 81 | 0 | 0.0 | 2.6 | 0.00 | 0.00 | 0.00 | 85 | 1014.1 |
| 20260905074047 | 81 | 0 | 0.9 | 2.6 | 0.00 | 0.00 | 0.00 | 85 | 1014.2 |
| 20260905073548 | 81 | 0 | 0.0 | 0.9 | 0.00 | 0.00 | 0.00 | 84 | 1014.1 |
| 20260905073110 | 81 | 0 | 0.0 | 1.7 | 0.00 | 0.00 | 0.00 | 84 | 1014.1 |
| 20260905072546 | 81 | 0 | 0.0 | 5.2 | 0.00 | 0.00 | 0.00 | 84 | 1014.2 |
| 20260905072043 | 81 | 62 | 0.0 | 5.2 | 0.00 | 0.00 | 0.00 | 84 | 1014.3 |
| 20260905071558 | 81 | 60 | 0.0 | 1.7 | 0.00 | 0.00 | 0.00 | 84 | 1014.4 |
| 20260905071047 | 81 | 0 | 0.0 | 1.7 | 0.00 | 0.00 | 0.00 | 83 | 1014.5 |
| 20260905070546 | 81 | 0 | 0.0 | 1.7 | 0.00 | 0.00 | 0.00 | 83 | 1014.4 |
| 20260905070058 | 81 | 0 | 0.0 | 1.7 | 0.00 | 0.00 | 0.00 | 83 | 1014.5 |
| 20260905065549 | 81 | 0 | 0.0 | 5.2 | 0.00 | 0.00 | 0.00 | 83 | 1014.3 |
| 20260905065047 | 82 | 0 | 0.0 | 5.2 | 0.00 | 0.00 | 0.00 | 82 | 1014.3 |
| 20260905064559 | 82 | 0 | 0.0 | 3.5 | 0.00 | 0.00 | 0.00 | 82 | 1014.3 |
| 20260905064046 | 82 | 0 | 0.0 | 1.7 | 0.00 | 0.00 | 0.00 | 82 | 1014.3 |
| 20260905063547 | 82 | 0 | 0.0 | 1.7 | 0.00 | 0.00 | 0.00 | 82 | 1014.4 |
| 20260905063103 | 82 | 0 | 0.0 | 2.6 | 0.00 | 0.00 | 0.00 | 81 | 1014.5 |
| 20260905062546 | 82 | 0 | 0.0 | 2.6 | 0.00 | 0.00 | 0.00 | 81 | 1014.4 |
| 20260905062046 | 82 | 0 | 0.0 | 2.6 | 0.00 | 0.00 | 0.00 | 81 | 1014.5 |
| 20260905061604 | 82 | 0 | 0.0 | 5.2 | 0.00 | 0.00 | 0.00 | 81 | 1014.5 |
| 20260905061047 | 82 | 65 | 0.0 | 5.2 | 0.00 | 0.00 | 0.00 | 80 | 1014.5 |
| 20260905060547 | 82 | 0 | 0.0 | 3.5 | 0.00 | 0.00 | 0.00 | 80 | 1014.5 |
| 20260905060107 | 82 | 61 | 0.0 | 2.6 | 0.00 | 0.00 | 0.00 | 80 | 1014.4 |
| 20260905055548 | 82 | 0 | 0.0 | 5.2 | 0.00 | 0.00 | 0.00 | 79 | 1014.5 |
| 20260905055046 | 83 | 0 | 0.0 | 5.2 | 0.00 | 0.00 | 0.00 | 79 | 1014.4 |
| 20260905054604 | 83 | 65 | 0.0 | 2.6 | 0.00 | 0.00 | 0.00 | 79 | 1014.4 |
| 20260905054048 | 83 | 0 | 0.0 | 2.6 | 0.00 | 0.00 | 0.00 | 79 | 1014.5 |
| 20260905053549 | 83 | 0 | 0.0 | 3.5 | 0.00 | 0.00 | 0.00 | 78 | 1014.5 |
| 20260905053058 | 83 | 0 | 0.0 | 3.5 | 0.00 | 0.00 | 0.00 | 78 | 1014.5 |
| 20260905052546 | 83 | 0 | 0.0 | 2.6 | 0.00 | 0.00 | 0.00 | 78 | 1014.5 |
| 20260905052047 | 83 | 0 | 0.0 | 2.6 | 0.00 | 0.00 | 0.00 | 77 | 1014.6 |
| 20260905051609 | 83 | 64 | 0.0 | 2.6 | 0.00 | 0.00 | 0.00 | 77 | 1014.5 |
| 20260905051049 | 83 | 0 | 0.0 | 2.6 | 0.00 | 0.00 | 0.00 | 77 | 1014.6 |
| 20260905050547 | 83 | 0 | 0.0 | 5.2 | 0.00 | 0.00 | 0.00 | 77 | 1014.5 |
| 20260905050105 | 83 | 0 | 0.0 | 5.2 | 0.00 | 0.00 | 0.00 | 77 | 1014.5 |
| 20260905045546 | 83 | 56 | 0.0 | 0.9 | 0.00 | 0.00 | 0.00 | 76 | 1014.4 |
| 20260905045047 | 83 | 0 | 0.0 | 2.6 | 0.00 | 0.00 | 0.00 | 76 | 1014.5 |
| 20260905044556 | 84 | 0 | 0.0 | 2.6 | 0.00 | 0.00 | 0.00 | 76 | 1014.4 |
| 20260905044048 | 84 | 0 | 0.0 | 2.6 | 0.00 | 0.00 | 0.00 | 75 | 1014.4 |
| 20260905043601 | 84 | 0 | 0.0 | 2.6 | 0.00 | 0.00 | 0.00 | 75 | 1014.4 |
| 20260905043049 | 84 | 0 | 0.0 | 2.6 | 0.00 | 0.00 | 0.00 | 75 | 1014.4 |
| 20260905042551 | 84 | 0 | 0.0 | 2.6 | 0.00 | 0.00 | 0.00 | 75 | 1014.6 |
| 20260905042048 | 84 | 91 | 0.0 | 2.6 | 0.00 | 0.00 | 0.00 | 74 | 1014.5 |
| 20260905041608 | 84 | 0 | 0.0 | 2.6 | 0.00 | 0.00 | 0.00 | 74 | 1014.4 |
| 20260905041046 | 84 | 132 | 0.0 | 2.6 | 0.00 | 0.00 | 0.00 | 74 | 1014.4 |
| 20260905040546 | 84 | 94 | 0.0 | 3.5 | 0.00 | 0.00 | 0.00 | 74 | 1014.4 |
| 20260905040108 | 84 | 0 | 0.0 | 3.5 | 0.00 | 0.00 | 0.00 | 73 | 1014.4 |
| 20260905035547 | 84 | 0 | 0.0 | 3.5 | 0.00 | 0.00 | 0.00 | 73 | 1014.4 |
| 20260905035048 | 84 | 0 | 0.9 | 3.5 | 0.00 | 0.00 | 0.00 | 73 | 1014.4 |
| 20260905034550 | 85 | 0 | 0.0 | 6.1 | 0.00 | 0.00 | 0.00 | 73 | 1014.4 |
| 20260905034046 | 85 | 0 | 0.0 | 6.1 | 0.00 | 0.00 | 0.00 | 72 | 1014.4 |
| 20260905033547 | 85 | 76 | 0.0 | 5.2 | 0.00 | 0.00 | 0.00 | 72 | 1014.4 |
| 20260905033108 | 85 | 0 | 0.9 | 5.2 | 0.00 | 0.00 | 0.00 | 72 | 1014.3 |
| 20260905032546 | 85 | 0 | 0.0 | 1.7 | 0.00 | 0.00 | 0.00 | 71 | 1014.4 |
| 20260905032046 | 85 | 0 | 0.0 | 3.5 | 0.00 | 0.00 | 0.00 | 71 | 1014.4 |
| 20260905031604 | 85 | 0 | 0.0 | 3.5 | 0.00 | 0.00 | 0.00 | 71 | 1014.3 |
| 20260905031047 | 85 | 71 | 0.0 | 3.5 | 0.00 | 0.00 | 0.00 | 70 | 1014.2 |
| 20260905030546 | 85 | 0 | 0.0 | 2.6 | 0.00 | 0.00 | 0.00 | 70 | 1014.2 |
| 20260905025547 | 85 | 0 | 0.0 | 2.6 | 0.00 | 0.00 | 0.00 | 69 | 1014.1 |
| 20260905025046 | 85 | 66 | 0.0 | 1.7 | 0.00 | 0.00 | 0.00 | 69 | 1014.0 |
| 20260905024604 | 85 | 0 | 0.0 | 2.6 | 0.00 | 0.00 | 0.00 | 69 | 1014.0 |
| 20260905024051 | 86 | 0 | 0.0 | 2.6 | 0.00 | 0.00 | 0.00 | 69 | 1014.0 |
| 20260905023547 | 86 | 0 | 0.0 | 1.7 | 0.00 | 0.00 | 0.00 | 68 | 1013.9 |
| 20260905023102 | 86 | 0 | 0.0 | 1.7 | 0.00 | 0.00 | 0.00 | 69 | 1013.9 |
| 20260905022548 | 86 | 0 | 0.0 | 1.7 | 0.00 | 0.00 | 0.00 | 69 | 1013.8 |
| 20260905022046 | 86 | 0 | 0.0 | 1.7 | 0.00 | 0.00 | 0.00 | 69 | 1013.7 |
| 20260905021608 | 86 | 0 | 0.0 | 2.6 | 0.00 | 0.00 | 0.00 | 69 | 1013.7 |
| 20260905021046 | 86 | 0 | 0.0 | 2.6 | 0.00 | 0.00 | 0.00 | 69 | 1013.6 |
| 20260905020546 | 86 | 0 | 0.0 | 2.6 | 0.00 | 0.00 | 0.00 | 68 | 1013.5 |
| 20260905020056 | 86 | 0 | 0.0 | 0.9 | 0.00 | 0.00 | 0.00 | 69 | 1013.5 |
| 20260905015549 | 86 | 0 | 0.0 | 0.9 | 0.00 | 0.00 | 0.00 | 69 | 1013.5 |
| 20260905015046 | 86 | 0 | 0.0 | 0.0 | 0.00 | 0.00 | 0.00 | 69 | 1013.5 |
| 20260905014553 | 87 | 0 | 0.0 | 3.5 | 0.00 | 0.00 | 0.00 | 69 | 1013.5 |
| 20260905014046 | 87 | 0 | 0.0 | 3.5 | 0.00 | 0.00 | 0.00 | 69 | 1013.4 |
| 20260905013546 | 87 | 66 | 0.0 | 4.3 | 0.00 | 0.00 | 0.00 | 69 | 1013.4 |
| 20260905013120 | 87 | 0 | 0.0 | 4.3 | 0.00 | 0.00 | 0.00 | 68 | 1013.4 |
| 20260905012547 | 87 | 0 | 0.9 | 4.3 | 0.00 | 0.00 | 0.00 | 68 | 1013.3 |
| 20260905012046 | 87 | 58 | 0.0 | 0.0 | 0.00 | 0.00 | 0.00 | 68 | 1013.3 |
| 20260905011610 | 87 | 0 | 0.0 | 3.5 | 0.00 | 0.00 | 0.00 | 68 | 1013.2 |
| 20260905011046 | 87 | 0 | 0.0 | 3.5 | 0.00 | 0.00 | 0.00 | 68 | 1013.3 |
| 20260905010550 | 87 | 69 | 0.0 | 3.5 | 0.00 | 0.00 | 0.00 | 67 | 1013.1 |
| 20260905010100 | 88 | 58 | 0.0 | 3.5 | 0.00 | 0.00 | 0.00 | 67 | 1013.0 |
| 20260905005546 | 88 | 58 | 0.0 | 2.6 | 0.00 | 0.00 | 0.00 | 67 | 1013.0 |
| 20260905005046 | 88 | 0 | 0.0 | 2.6 | 0.00 | 0.00 | 0.00 | 67 | 1013.0 |
| 20260905004607 | 88 | 0 | 0.0 | 2.6 | 0.00 | 0.00 | 0.00 | 66 | 1012.9 |
| 20260905004047 | 88 | 65 | 0.0 | 3.5 | 0.00 | 0.00 | 0.00 | 66 | 1013.0 |
| 20260905003547 | 88 | 0 | 0.9 | 3.5 | 0.00 | 0.00 | 0.00 | 65 | 1012.9 |
| 20260905003102 | 89 | 65 | 0.0 | 1.7 | 0.00 | 0.00 | 0.00 | 64 | 1012.7 |
| 20260905002546 | 89 | 65 | 0.0 | 1.7 | 0.00 | 0.00 | 0.00 | 63 | 1012.7 |
| 20260905002047 | 89 | 0 | 0.0 | 2.6 | 0.00 | 0.00 | 0.00 | 63 | 1012.6 |
| 20260905001607 | 89 | 0 | 0.0 | 2.6 | 0.00 | 0.00 | 0.00 | 63 | 1012.7 |
| 20260905001046 | 89 | 64 | 0.0 | 2.6 | 0.00 | 0.00 | 0.00 | 63 | 1012.6 |
| 20260905000547 | 89 | 162 | 0.9 | 5.2 | 0.00 | 0.00 | 0.00 | 63 | 1012.6 |
| 20260905000109 | 89 | 0 | 0.9 | 5.2 | 0.00 | 0.00 | 0.00 | 62 | 1012.5 |
| 20260904235551 | 89 | 71 | 0.0 | 3.5 | 0.00 | 0.00 | 0.00 | 62 | 1012.4 |
| 20260904235046 | 89 | 96 | 0.0 | 3.5 | 0.00 | 0.00 | 0.00 | 62 | 1012.4 |
| 20260904234607 | 90 | 81 | 0.0 | 2.6 | 0.00 | 0.00 | 0.00 | 62 | 1012.4 |
| 20260904234050 | 90 | 68 | 0.0 | 1.7 | 0.00 | 0.00 | 0.00 | 62 | 1012.4 |
| 20260904233549 | 90 | 0 | 0.9 | 3.5 | 0.00 | 0.00 | 0.00 | 61 | 1012.4 |
| 20260904233100 | 91 | 0 | 0.0 | 3.5 | 0.00 | 0.00 | 0.00 | 61 | 1012.5 |
| 20260904232547 | 91 | 0 | 0.0 | 3.5 | 0.00 | 0.00 | 0.00 | 60 | 1012.4 |
| 20260904232045 | 91 | 70 | 0.0 | 2.6 | 0.00 | 0.00 | 0.00 | 60 | 1012.3 |
| 20260904231600 | 91 | 0 | 0.0 | 2.6 | 0.00 | 0.00 | 0.00 | 60 | 1012.4 |
| 20260904231046 | 92 | 75 | 0.0 | 2.6 | 0.00 | 0.00 | 0.00 | 60 | 1012.3 |
| 20260904230551 | 92 | 0 | 0.0 | 6.1 | 0.00 | 0.00 | 0.00 | 60 | 1012.4 |
| 20260904230109 | 92 | 67 | 0.9 | 6.1 | 0.00 | 0.00 | 0.00 | 59 | 1012.4 |
| 20260904225547 | 93 | 70 | 0.0 | 2.6 | 0.00 | 0.00 | 0.00 | 58 | 1012.4 |
| 20260904225046 | 93 | 70 | 0.0 | 2.6 | 0.00 | 0.00 | 0.00 | 56 | 1012.4 |
| 20260904224615 | 93 | 69 | 0.0 | 5.2 | 0.00 | 0.00 | 0.00 | 56 | 1012.3 |
| 20260904224049 | 93 | 0 | 0.0 | 5.2 | 0.00 | 0.00 | 0.00 | 55 | 1012.4 |
| 20260904223546 | 93 | 54 | 0.9 | 5.2 | 0.00 | 0.00 | 0.00 | 55 | 1012.4 |